TimeEDT,TemperatureF,Dew PointF,Humidity,Sea Level PressureIn,VisibilityMPH,Wind Direction,Wind SpeedMPH,Gust SpeedMPH,PrecipitationIn,Events,Conditions,WindDirDegrees,DateUTC
12:53 AM,71.1,64.9,81,30.16,10.0,NNW,3.5,-,N/A,,Clear,330,2013-07-17 04:53:00
1:53 AM,73.9,66.9,79,30.15,10.0,Calm,Calm,-,N/A,,Clear,0,2013-07-17 05:53:00
2:53 AM,75.0,69.1,82,30.15,10.0,NNW,3.5,-,N/A,,Clear,340,2013-07-17 06:53:00
3:53 AM,70.0,66.9,90,30.16,10.0,SE,3.5,-,N/A,,Clear,140,2013-07-17 07:53:00
4:53 AM,70.0,66.9,90,30.16,10.0,Calm,Calm,-,N/A,,Clear,0,2013-07-17 08:53:00
5:53 AM,69.1,66.0,90,30.17,10.0,Calm,Calm,-,N/A,,Clear,0,2013-07-17 09:53:00
6:53 AM,77.0,71.1,82,30.19,10.0,North,6.9,-,N/A,,Clear,350,2013-07-17 10:53:00
7:53 AM,80.1,72.0,76,30.19,10.0,North,9.2,-,N/A,,Clear,350,2013-07-17 11:53:00
8:53 AM,84.0,71.1,65,30.19,10.0,North,8.1,-,N/A,,Clear,360,2013-07-17 12:53:00
9:53 AM,88.0,70.0,55,30.19,10.0,NE,9.2,-,N/A,,Clear,40,2013-07-17 13:53:00
10:53 AM,87.1,72.0,61,30.19,10.0,SE,6.9,-,N/A,,Clear,130,2013-07-17 14:53:00
11:53 AM,86.0,71.1,61,30.19,10.0,ESE,8.1,-,N/A,,Clear,120,2013-07-17 15:53:00
12:53 PM,86.0,70.0,59,30.18,10.0,SE,8.1,-,N/A,,Clear,130,2013-07-17 16:53:00
1:53 PM,86.0,71.1,61,30.17,10.0,SE,6.9,-,N/A,,Clear,140,2013-07-17 17:53:00
2:53 PM,86.0,71.1,61,30.16,10.0,South,5.8,-,N/A,,Clear,180,2013-07-17 18:53:00
3:53 PM,84.9,71.1,63,30.14,10.0,SSW,9.2,-,N/A,,Clear,200,2013-07-17 19:53:00
4:53 PM,82.9,72.0,69,30.12,10.0,South,8.1,-,N/A,,Clear,180,2013-07-17 20:53:00
5:53 PM,82.9,70.0,65,30.11,10.0,South,9.2,-,N/A,,Clear,190,2013-07-17 21:53:00
6:53 PM,81.0,72.0,74,30.10,10.0,South,6.9,-,N/A,,Clear,180,2013-07-17 22:53:00
7:53 PM,79.0,73.9,84,30.10,10.0,SSW,6.9,-,N/A,,Clear,200,2013-07-17 23:53:00
8:53 PM,78.1,73.9,87,30.10,10.0,SSW,3.5,-,N/A,,Clear,210,2013-07-18 00:53:00
9:53 PM,78.1,73.9,87,30.10,10.0,SSW,4.6,-,N/A,,Clear,210,2013-07-18 01:53:00
10:53 PM,78.1,73.9,87,30.10,10.0,SW,5.8,-,N/A,,Clear,230,2013-07-18 02:53:00
11:53 PM,79.0,73.0,82,30.09,10.0,SW,6.9,-,N/A,,Clear,220,2013-07-18 03:53:00